Location: Unspecified
(0.0000°N, 0.0000°E)
Time: 03:45:20
(UTC+00:00)

Vanguard 3 - Visible Passes

Search period start: 21 October 2014 00:00
Search period end: 31 October 2014 00:00
Orbit: 508 x 3278 km, 33.3° (Epoch: 19 October)

Date Brightness Start Highest point End Pass type
(mag) Time Alt. Az. Time Alt. Az. Time Alt. Az.
21 Oct 10.4 17:44:20 10° SW 18:02:17 40° SSE 18:15:51 10° E visible
21 Oct 9.0 20:01:19 10° SW 20:19:41 88° SE 20:21:18 75° ENE visible
21 Oct 10.8 22:22:34 10° W 22:26:03 17° W 22:26:03 17° W visible
22 Oct 9.7 18:45:51 10° SW 19:05:17 63° SSE 19:13:38 30° ENE visible
22 Oct 9.7 21:04:48 10° WSW 21:18:24 48° WNW 21:18:24 48° WNW visible
23 Oct 9.2 19:48:13 10° WSW 20:07:10 80° NW 20:10:45 58° NE visible
23 Oct 10.8 22:10:40 10° W 22:15:31 18° WNW 22:15:31 18° WNW visible
24 Oct 9.8 18:32:39 10° SW 18:52:43 74° SE 19:03:07 24° ENE visible
24 Oct 9.8 20:52:13 10° WSW 21:07:53 45° NW 21:07:53 45° NW visible
25 Oct 9.5 19:35:15 10° WSW 19:54:30 70° NW 20:00:14 43° NNE visible
25 Oct 10.8 21:58:59 10° W 22:05:00 19° WNW 22:05:00 19° WNW visible
26 Oct 9.9 18:19:33 10° SW 18:39:58 84° SE 18:52:35 17° ENE visible
26 Oct 9.9 20:39:48 10° WSW 20:55:38 39° NW 20:57:21 38° NNW visible
27 Oct 9.9 19:22:27 10° WSW 19:41:44 61° NW 19:49:42 32° NNE visible
27 Oct 10.8 21:47:30 10° WNW 21:54:27 18° NW 21:54:27 18° NW visible
28 Oct 8.9 04:43:46 10° NNE 04:44:40 11° NE 04:45:35 10° NE visible
28 Oct 10.0 18:06:37 10° SW 18:27:05 86° NW 18:42:01 12° NE visible
28 Oct 10.1 20:27:34 10° W 20:43:07 34° NW 20:46:46 31° NNW visible
29 Oct 10.2 19:09:50 10° WSW 19:28:55 54° NW 19:39:04 23° NNE visible
29 Oct 10.8 21:36:15 10° WNW 21:43:49 17° NW 21:43:49 17° NW visible
30 Oct 8.5 04:30:38 10° N 04:32:59 17° NE 04:35:31 10° ENE visible
30 Oct 10.2 17:53:50 10° WSW 18:14:05 77° NW 18:30:14 10° NE visible
30 Oct 10.3 20:15:34 10° W 20:30:39 30° NW 20:36:05 24° N visible
